KLM7789 EHGG-LIME

Flight info

Callsign KLM7789
Flight time 1h 19m
Altitude 350
Route SONEB DCT BAM DCT PODIP DCT DODEN Y852 NATOR N850 GERSA/N0426F270 N850 ODINA
Aircraft B738/M-SDE2E3FGHIRWXY/LB1

Departure

Time 2026-05-08 14:05
Airport Groningen Airport Eelde (EHGG)

Arrival

Time 2026-05-08 15:25
Airport Il Caravaggio International Airport (LIME)
Time Latitude Longitude Altitude Speed Heading
2026-05-08 13:45 53.12807 6.58592 22 ft 0 kts 353°
2026-05-08 13:54 53.12798 6.58594 22 ft 4 kts 353°
2026-05-08 13:54 53.12770 6.58603 23 ft 4 kts 336°
2026-05-08 13:54 53.12745 6.58629 24 ft 4 kts 313°
2026-05-08 13:55 53.12725 6.58669 23 ft 5 kts 310°
2026-05-08 13:55 53.12724 6.58671 23 ft 0 kts 310°
2026-05-08 13:57 53.12734 6.58642 25 ft 13 kts 287°
2026-05-08 13:57 53.12701 6.58485 22 ft 15 kts 217°
2026-05-08 13:58 53.12608 6.58310 23 ft 21 kts 231°
2026-05-08 13:58 53.12519 6.58119 24 ft 21 kts 232°
2026-05-08 13:58 53.12432 6.57934 25 ft 20 kts 232°
2026-05-08 13:58 53.12322 6.57836 26 ft 23 kts 192°
2026-05-08 13:59 53.12156 6.57788 27 ft 21 kts 204°
2026-05-08 13:59 53.12054 6.57608 26 ft 26 kts 231°
2026-05-08 13:59 53.11931 6.57350 29 ft 28 kts 233°
2026-05-08 13:59 53.11812 6.57096 26 ft 27 kts 231°
2026-05-08 14:00 53.11705 6.56872 27 ft 20 kts 232°
2026-05-08 14:00 53.11598 6.56809 26 ft 5 kts 154°
2026-05-08 14:00 53.11598 6.56810 26 ft 0 kts 153°
2026-05-08 14:02 53.11540 6.56874 27 ft 17 kts 148°
2026-05-08 14:02 53.11460 6.56831 26 ft 19 kts 230°
2026-05-08 14:02 53.11347 6.56594 26 ft 30 kts 231°
2026-05-08 14:02 53.11222 6.56331 28 ft 27 kts 231°
2026-05-08 14:03 53.11130 6.56161 27 ft 14 kts 233°
2026-05-08 14:03 53.11140 6.56096 28 ft 5 kts 17°
2026-05-08 14:03 53.11144 6.56167 27 ft 5 kts 75°
2026-05-08 14:03 53.11150 6.56179 27 ft 0 kts 48°
2026-05-08 14:04 53.11171 6.56220 29 ft 21 kts 50°
2026-05-08 14:05 53.11378 6.56664 27 ft 75 kts 51°
2026-05-08 14:05 53.11813 6.57584 29 ft 129 kts 50°
2026-05-08 14:05 53.12407 6.58831 329 ft 137 kts 57°
2026-05-08 14:05 53.13020 6.60135 718 ft 145 kts 54°
2026-05-08 14:06 53.13667 6.61385 1261 ft 145 kts 52°
2026-05-08 14:06 53.14382 6.62763 1591 ft 171 kts 51°
2026-05-08 14:06 53.15147 6.64468 1852 ft 197 kts 66°
2026-05-08 14:06 53.15344 6.65977 2025 ft 211 kts 92°
2026-05-08 14:07 53.14737 6.68302 2342 ft 236 kts 134°
2026-05-08 14:07 53.13270 6.69677 3017 ft 249 kts 158°
2026-05-08 14:07 53.11607 6.70585 3893 ft 253 kts 159°
2026-05-08 14:07 53.09938 6.71516 4810 ft 253 kts 158°
2026-05-08 14:08 53.08278 6.72524 5623 ft 254 kts 156°
2026-05-08 14:08 53.06626 6.73590 6477 ft 255 kts 157°
2026-05-08 14:08 53.04937 6.74596 7158 ft 262 kts 166°
2026-05-08 14:08 53.03096 6.75035 7775 ft 271 kts 175°
2026-05-08 14:09 53.01209 6.75182 8582 ft 272 kts 178°
2026-05-08 14:09 52.99300 6.75250 9356 ft 276 kts 179°
2026-05-08 14:09 52.97366 6.75292 10126 ft 279 kts 180°
2026-05-08 14:09 52.95397 6.75323 10692 ft 290 kts 180°
2026-05-08 14:10 52.93307 6.75350 10953 ft 311 kts 180°
2026-05-08 14:10 52.91077 6.75377 11233 ft 330 kts 180°
2026-05-08 14:10 52.88717 6.75404 11507 ft 348 kts 180°
2026-05-08 14:10 52.86233 6.75432 11752 ft 366 kts 180°
2026-05-08 14:11 52.83659 6.75463 12274 ft 374 kts 180°
2026-05-08 14:11 52.81026 6.75495 12839 ft 380 kts 180°
2026-05-08 14:11 52.78369 6.75529 13539 ft 383 kts 181°
2026-05-08 14:11 52.75691 6.75560 14145 ft 388 kts 181°
2026-05-08 14:12 52.73017 6.75593 14712 ft 391 kts 181°
2026-05-08 14:12 52.70281 6.75624 15295 ft 395 kts 181°
2026-05-08 14:12 52.67514 6.75656 15838 ft 400 kts 181°
2026-05-08 14:12 52.64716 6.75689 16409 ft 403 kts 181°
2026-05-08 14:13 52.61864 6.75724 16976 ft 407 kts 181°
2026-05-08 14:13 52.59061 6.75758 17524 ft 410 kts 181°
2026-05-08 14:13 52.56192 6.75791 18050 ft 414 kts 181°
2026-05-08 14:13 52.53297 6.75825 18552 ft 417 kts 181°
2026-05-08 14:14 52.50384 6.75859 19013 ft 420 kts 181°
2026-05-08 14:14 52.47453 6.75893 19485 ft 423 kts 181°
2026-05-08 14:14 52.44504 6.75928 19955 ft 425 kts 181°
2026-05-08 14:14 52.41538 6.75963 20417 ft 428 kts 181°
2026-05-08 14:15 52.38556 6.75997 20885 ft 430 kts 181°
2026-05-08 14:15 52.35555 6.76032 21346 ft 433 kts 181°
2026-05-08 14:15 52.32537 6.76067 21798 ft 435 kts 181°
2026-05-08 14:15 52.29500 6.76102 22297 ft 437 kts 181°
2026-05-08 14:16 52.26457 6.76138 22745 ft 439 kts 181°
2026-05-08 14:16 52.23391 6.76173 23181 ft 442 kts 181°
2026-05-08 14:16 52.20309 6.76209 23599 ft 444 kts 181°
2026-05-08 14:16 52.17201 6.76245 23952 ft 447 kts 181°
2026-05-08 14:17 52.14085 6.76281 24260 ft 450 kts 181°
2026-05-08 14:17 52.10955 6.76317 24488 ft 450 kts 181°
2026-05-08 14:17 52.07817 6.76353 24756 ft 452 kts 181°
2026-05-08 14:17 52.04667 6.76472 25119 ft 454 kts 178°
2026-05-08 14:18 52.01528 6.77191 25431 ft 458 kts 168°
2026-05-08 14:18 51.98455 6.78622 25782 ft 459 kts 163°
2026-05-08 14:18 51.95439 6.80315 26231 ft 458 kts 161°
2026-05-08 14:18 51.92462 6.82124 26670 ft 457 kts 161°
2026-05-08 14:19 51.89498 6.83974 27064 ft 457 kts 161°
2026-05-08 14:19 51.86528 6.85827 27417 ft 457 kts 161°
2026-05-08 14:19 51.83562 6.87656 27806 ft 455 kts 161°
2026-05-08 14:19 51.80610 6.89453 28306 ft 452 kts 161°
2026-05-08 14:20 51.77668 6.91224 28701 ft 451 kts 161°
2026-05-08 14:20 51.74731 6.92979 29046 ft 450 kts 161°
2026-05-08 14:20 51.71791 6.94727 29399 ft 450 kts 162°
2026-05-08 14:20 51.68857 6.96466 29745 ft 449 kts 162°
2026-05-08 14:21 51.65925 6.98202 30083 ft 448 kts 162°
2026-05-08 14:21 51.63007 6.99929 30376 ft 448 kts 162°
2026-05-08 14:21 51.60088 7.01654 30641 ft 447 kts 162°
2026-05-08 14:21 51.57167 7.03379 30915 ft 446 kts 162°
2026-05-08 14:22 51.54259 7.05095 31183 ft 445 kts 162°
2026-05-08 14:22 51.51350 7.06808 31412 ft 445 kts 162°
2026-05-08 14:22 51.48450 7.08514 31636 ft 445 kts 162°
2026-05-08 14:22 51.45541 7.10222 31876 ft 444 kts 162°
2026-05-08 14:23 51.42642 7.11923 32093 ft 444 kts 162°
2026-05-08 14:23 51.39742 7.13623 32313 ft 443 kts 162°
2026-05-08 14:23 51.36856 7.15357 32526 ft 444 kts 159°
2026-05-08 14:23 51.34084 7.17535 32728 ft 446 kts 152°
2026-05-08 14:24 51.31515 7.20332 32914 ft 449 kts 143°
2026-05-08 14:24 51.29194 7.23682 33077 ft 451 kts 139°
2026-05-08 14:24 51.26977 7.27228 33263 ft 451 kts 137°
2026-05-08 14:24 51.24832 7.30825 33450 ft 451 kts 136°
2026-05-08 14:25 51.22661 7.34535 33634 ft 451 kts 136°
2026-05-08 14:25 51.20525 7.38195 33813 ft 451 kts 136°
2026-05-08 14:25 51.18410 7.41800 33979 ft 451 kts 136°
2026-05-08 14:25 51.16260 7.45437 34132 ft 451 kts 136°
2026-05-08 14:26 51.14103 7.49060 34255 ft 451 kts 136°
2026-05-08 14:26 51.11946 7.52667 34365 ft 451 kts 136°
2026-05-08 14:26 51.09776 7.56281 34473 ft 451 kts 136°
2026-05-08 14:26 51.07610 7.59882 34580 ft 451 kts 137°
2026-05-08 14:27 51.05439 7.63485 34703 ft 450 kts 137°
2026-05-08 14:27 51.01102 7.70666 34882 ft 452 kts 137°
2026-05-08 14:28 50.96736 7.77868 35022 ft 453 kts 139°
2026-05-08 14:28 50.91754 7.83856 35104 ft 449 kts 153°
2026-05-08 14:29 50.86262 7.88572 35105 ft 448 kts 156°
2026-05-08 14:29 50.80698 7.93007 35103 ft 448 kts 156°
2026-05-08 14:30 50.75125 7.97419 35096 ft 448 kts 156°
2026-05-08 14:30 50.69563 8.01853 35102 ft 448 kts 156°
2026-05-08 14:31 50.64037 8.06270 35100 ft 448 kts 157°
2026-05-08 14:31 50.58192 8.09361 35111 ft 440 kts 174°
2026-05-08 14:32 50.49079 8.10930 35113 ft 439 kts 178°
2026-05-08 14:32 50.42985 8.11653 35113 ft 439 kts 178°
2026-05-08 14:33 50.36890 8.12395 35109 ft 439 kts 178°
2026-05-08 14:33 50.30800 8.13174 35109 ft 439 kts 178°
2026-05-08 14:34 50.24707 8.13967 35105 ft 439 kts 178°
2026-05-08 14:34 50.18621 8.14759 35102 ft 439 kts 178°
2026-05-08 14:35 50.12532 8.15554 35093 ft 439 kts 177°
2026-05-08 14:35 50.06442 8.16394 35100 ft 439 kts 177°
2026-05-08 14:36 50.00347 8.17251 35102 ft 439 kts 177°
2026-05-08 14:36 49.94264 8.18102 35097 ft 439 kts 177°
2026-05-08 14:37 49.88168 8.18949 35073 ft 439 kts 177°
2026-05-08 14:37 49.82072 8.19791 35079 ft 440 kts 177°
2026-05-08 14:38 49.75966 8.20633 35077 ft 440 kts 177°
2026-05-08 14:38 49.69860 8.21473 35080 ft 440 kts 177°
2026-05-08 14:39 49.63759 8.22310 35066 ft 440 kts 177°
2026-05-08 14:39 49.57698 8.23140 35069 ft 440 kts 177°
2026-05-08 14:40 49.51595 8.23973 35067 ft 440 kts 177°
2026-05-08 14:40 49.45487 8.24804 35062 ft 440 kts 177°
2026-05-08 14:41 49.39385 8.25633 35056 ft 441 kts 177°
2026-05-08 14:41 49.33273 8.26461 35055 ft 441 kts 177°
2026-05-08 14:42 49.27158 8.27288 35053 ft 441 kts 177°
2026-05-08 14:42 49.21045 8.28112 35045 ft 441 kts 178°
2026-05-08 14:43 49.14922 8.28935 35054 ft 442 kts 178°
2026-05-08 14:43 49.08786 8.29758 35055 ft 443 kts 178°
2026-05-08 14:44 49.02650 8.30580 35049 ft 442 kts 178°
2026-05-08 14:44 48.96513 8.31235 35045 ft 442 kts 181°
2026-05-08 14:45 48.90372 8.31344 35042 ft 441 kts 183°
2026-05-08 14:45 48.84230 8.31329 35042 ft 441 kts 182°
2026-05-08 14:46 48.78126 8.31355 35039 ft 442 kts 182°
2026-05-08 14:46 48.71976 8.31423 35043 ft 443 kts 182°
2026-05-08 14:47 48.65811 8.31503 35041 ft 443 kts 182°
2026-05-08 14:47 48.59654 8.31586 35035 ft 443 kts 182°
2026-05-08 14:48 48.53488 8.31666 35031 ft 443 kts 182°
2026-05-08 14:48 48.47329 8.31744 35024 ft 443 kts 182°
2026-05-08 14:49 48.41157 8.31822 35022 ft 443 kts 182°
2026-05-08 14:49 48.34996 8.31900 35016 ft 443 kts 182°
2026-05-08 14:50 48.28834 8.31978 35024 ft 443 kts 182°
2026-05-08 14:50 48.22654 8.32056 35023 ft 444 kts 182°
2026-05-08 14:51 48.16481 8.32397 35023 ft 446 kts 176°
2026-05-08 14:51 48.10321 8.33693 35022 ft 448 kts 174°
2026-05-08 14:52 48.01106 8.35947 35028 ft 450 kts 174°
2026-05-08 14:53 47.94925 8.37468 35031 ft 450 kts 174°
2026-05-08 14:53 47.88749 8.38966 35034 ft 450 kts 174°
2026-05-08 14:54 47.82544 8.40455 35036 ft 452 kts 174°
2026-05-08 14:54 47.77344 8.41697 35034 ft 452 kts 174°
2026-05-08 14:55 47.71173 8.43167 35026 ft 451 kts 174°
2026-05-08 14:55 47.64977 8.44409 35025 ft 448 kts 178°
2026-05-08 14:56 47.58764 8.45299 35023 ft 448 kts 178°
2026-05-08 14:56 47.52562 8.46144 35017 ft 448 kts 178°
2026-05-08 14:57 47.46352 8.47027 35018 ft 448 kts 178°
2026-05-08 14:57 47.40136 8.47933 35021 ft 449 kts 178°
2026-05-08 14:58 47.33910 8.48847 35023 ft 449 kts 178°
2026-05-08 14:58 47.27684 8.49757 35004 ft 449 kts 178°
2026-05-08 14:59 47.21454 8.50665 35018 ft 451 kts 178°
2026-05-08 14:59 47.12078 8.52029 35014 ft 451 kts 178°
2026-05-08 15:00 47.05831 8.52935 35001 ft 451 kts 178°
2026-05-08 15:00 46.99566 8.53840 35020 ft 453 kts 178°
2026-05-08 15:01 46.93334 8.54739 35022 ft 453 kts 178°
2026-05-08 15:01 46.87050 8.55644 35019 ft 453 kts 178°
2026-05-08 15:02 46.80772 8.56543 35020 ft 454 kts 179°
2026-05-08 15:02 46.74476 8.57447 35012 ft 454 kts 178°
2026-05-08 15:03 46.68206 8.58344 35025 ft 451 kts 178°
2026-05-08 15:03 46.61963 8.59234 35021 ft 451 kts 178°
2026-05-08 15:04 46.55710 8.60120 35031 ft 452 kts 178°
2026-05-08 15:04 46.49440 8.61007 35025 ft 453 kts 178°
2026-05-08 15:05 46.43141 8.61897 34514 ft 456 kts 178°
2026-05-08 15:05 46.39977 8.62343 33720 ft 458 kts 178°
2026-05-08 15:05 46.36796 8.62792 32880 ft 459 kts 178°
2026-05-08 15:06 46.33619 8.63240 32191 ft 458 kts 178°
2026-05-08 15:06 46.30457 8.63687 31510 ft 456 kts 178°
2026-05-08 15:06 46.27300 8.64131 30799 ft 454 kts 178°
2026-05-08 15:06 46.24163 8.64571 30137 ft 452 kts 178°
2026-05-08 15:07 46.21042 8.65009 29276 ft 451 kts 178°
2026-05-08 15:07 46.17913 8.65447 28215 ft 454 kts 177°
2026-05-08 15:07 46.14804 8.66145 27123 ft 462 kts 168°
2026-05-08 15:07 46.11788 8.67842 26075 ft 470 kts 153°
2026-05-08 15:08 46.09146 8.70676 25061 ft 479 kts 137°
2026-05-08 15:08 46.07692 8.73159 24424 ft 483 kts 127°
2026-05-08 15:08 46.05359 8.78599 23503 ft 479 kts 122°
2026-05-08 15:08 46.03698 8.82734 22777 ft 474 kts 121°
2026-05-08 15:09 46.02059 8.86799 22110 ft 467 kts 122°
2026-05-08 15:09 46.00429 8.90806 21457 ft 460 kts 122°
2026-05-08 15:09 45.98818 8.94737 20824 ft 454 kts 122°
2026-05-08 15:09 45.97219 8.98625 20188 ft 449 kts 122°
2026-05-08 15:10 45.95634 9.02466 19541 ft 445 kts 122°
2026-05-08 15:10 45.94068 9.06249 19176 ft 433 kts 122°
2026-05-08 15:10 45.92562 9.09885 19091 ft 415 kts 122°
2026-05-08 15:10 45.91112 9.13376 18983 ft 399 kts 122°
2026-05-08 15:11 45.89712 9.16745 18797 ft 386 kts 122°
2026-05-08 15:11 45.88361 9.19988 18636 ft 373 kts 122°
2026-05-08 15:11 45.87054 9.23124 18445 ft 360 kts 122°
2026-05-08 15:11 45.85788 9.26156 18287 ft 348 kts 122°
2026-05-08 15:12 45.84564 9.29087 18115 ft 336 kts 122°
2026-05-08 15:12 45.83383 9.31911 17888 ft 327 kts 121°
2026-05-08 15:12 45.82212 9.34708 17424 ft 327 kts 122°
2026-05-08 15:12 45.81046 9.37488 17032 ft 324 kts 122°
2026-05-08 15:13 45.79889 9.40246 16667 ft 322 kts 122°
2026-05-08 15:13 45.78737 9.42990 16290 ft 322 kts 122°
2026-05-08 15:13 45.77579 9.45744 15901 ft 322 kts 121°
2026-05-08 15:13 45.76431 9.48473 15516 ft 318 kts 121°
2026-05-08 15:14 45.75296 9.51168 15161 ft 315 kts 121°
2026-05-08 15:14 45.74170 9.53841 14793 ft 313 kts 122°
2026-05-08 15:14 45.73063 9.56464 14429 ft 311 kts 121°
2026-05-08 15:14 45.71949 9.59101 14073 ft 309 kts 121°
2026-05-08 15:15 45.70840 9.61722 13700 ft 307 kts 121°
2026-05-08 15:15 45.69739 9.64322 13307 ft 304 kts 121°
2026-05-08 15:15 45.68652 9.66888 12978 ft 299 kts 123°
2026-05-08 15:15 45.67234 9.68988 12598 ft 293 kts 152°
2026-05-08 15:16 45.65309 9.69901 11965 ft 296 kts 176°
2026-05-08 15:16 45.63247 9.70121 11382 ft 299 kts 168°
2026-05-08 15:16 45.61399 9.71406 10862 ft 299 kts 136°
2026-05-08 15:16 45.60049 9.73642 10478 ft 295 kts 128°
2026-05-08 15:17 45.58776 9.75930 10063 ft 293 kts 130°
2026-05-08 15:17 45.57444 9.78118 9619 ft 291 kts 133°
2026-05-08 15:17 45.56056 9.80220 9176 ft 288 kts 134°
2026-05-08 15:17 45.54656 9.82236 8739 ft 286 kts 135°
2026-05-08 15:18 45.53236 9.84221 8257 ft 285 kts 136°
2026-05-08 15:18 45.51861 9.86238 7826 ft 283 kts 127°
2026-05-08 15:18 45.50912 9.88662 7402 ft 280 kts 107°
2026-05-08 15:18 45.50816 9.91401 6909 ft 280 kts 75°
2026-05-08 15:19 45.51776 9.93780 6457 ft 279 kts 44°
2026-05-08 15:19 45.53240 9.95496 6101 ft 269 kts 36°
2026-05-08 15:19 45.54831 9.96960 5338 ft 276 kts 31°
2026-05-08 15:19 45.56495 9.98230 4898 ft 265 kts 26°
2026-05-08 15:20 45.58119 9.99265 4569 ft 248 kts 20°
2026-05-08 15:20 45.59776 9.99423 4088 ft 238 kts 343°
2026-05-08 15:20 45.61092 9.98167 3704 ft 228 kts 310°
2026-05-08 15:20 45.61958 9.96381 3698 ft 203 kts 295°
2026-05-08 15:21 45.62402 9.94520 3871 ft 195 kts 284°
2026-05-08 15:21 45.62715 9.92672 3721 ft 189 kts 284°
2026-05-08 15:21 45.63045 9.90887 3457 ft 187 kts 285°
2026-05-08 15:21 45.63387 9.89069 3181 ft 187 kts 284°
2026-05-08 15:22 45.63709 9.87322 2930 ft 182 kts 284°
2026-05-08 15:22 45.64030 9.85588 2694 ft 179 kts 285°
2026-05-08 15:22 45.64347 9.83879 2455 ft 177 kts 284°
2026-05-08 15:22 45.64653 9.82221 2237 ft 166 kts 284°
2026-05-08 15:23 45.64937 9.80689 1999 ft 154 kts 284°
2026-05-08 15:23 45.65207 9.79229 1795 ft 151 kts 284°
2026-05-08 15:23 45.65477 9.77771 1583 ft 152 kts 284°
2026-05-08 15:23 45.65748 9.76309 1374 ft 152 kts 283°
2026-05-08 15:24 45.66016 9.74846 1167 ft 152 kts 283°
2026-05-08 15:24 45.66285 9.73391 983 ft 151 kts 283°
2026-05-08 15:24 45.66553 9.71963 800 ft 147 kts 283°
2026-05-08 15:24 45.66789 9.70669 788 ft 116 kts 285°
2026-05-08 15:25 45.66917 9.69969 796 ft 52 kts 285°
2026-05-08 15:25 45.67004 9.69515 797 ft 41 kts 284°
2026-05-08 15:25 45.67047 9.69274 797 ft 23 kts 284°
2026-05-08 15:25 45.67057 9.69069 799 ft 19 kts 252°
2026-05-08 15:26 45.66971 9.68987 800 ft 15 kts 193°
2026-05-08 15:26 45.66909 9.69014 800 ft 4 kts 104°
2026-05-08 15:26 45.66906 9.69089 799 ft 14 kts 96°
2026-05-08 15:26 45.66879 9.69278 798 ft 21 kts 104°
2026-05-08 15:27 45.66841 9.69476 796 ft 21 kts 106°
2026-05-08 15:27 45.66805 9.69673 795 ft 20 kts 104°
2026-05-08 15:27 45.66768 9.69831 794 ft 11 kts 131°
2026-05-08 15:27 45.66742 9.69834 794 ft 4 kts 230°
2026-05-08 15:28 45.66713 9.69810 794 ft 6 kts 198°
2026-05-08 15:28 45.66685 9.69797 794 ft 1 kts 194°
2026-05-08 15:28 45.66677 9.69794 794 ft 0 kts 195°